Time,TemperatureF,DewpointF,PressureIn,WindDirection,WindDirectionDegrees,WindSpeedMPH,WindSpeedGustMPH,Humidity,HourlyPrecipIn,Conditions,Clouds,dailyrainin,SoftwareType,DateUTC
2013-06-06 00:00:00,71.0,68.2,29.82,South,169,0.0,6.9,91,0.00,,,0.00,VWS V14.01,2013-06-06 05:00:00,
2013-06-06 00:13:00,70.8,68.1,29.82,SSW,196,1.1,4.6,91,0.00,,,0.00,VWS V14.01,2013-06-06 05:13:00,
2013-06-06 00:15:00,70.8,68.1,29.82,SSW,196,1.1,4.6,91,0.00,,,0.00,VWS V14.01,2013-06-06 05:15:00,
2013-06-06 00:28:00,70.6,67.5,29.82,SE,143,0.0,3.4,90,0.00,,,0.00,VWS V14.01,2013-06-06 05:28:00,
2013-06-06 00:30:00,70.6,67.5,29.82,SE,143,0.0,3.4,90,0.00,,,0.00,VWS V14.01,2013-06-06 05:30:00,
2013-06-06 00:43:00,70.5,67.4,29.82,SSE,167,4.6,4.6,90,0.00,,,0.00,VWS V14.01,2013-06-06 05:43:00,
2013-06-06 00:45:00,70.5,67.4,29.82,SSE,167,4.6,4.6,90,0.00,,,0.00,VWS V14.01,2013-06-06 05:45:00,
2013-06-06 00:58:00,70.3,67.2,29.82,SW,214,1.1,6.9,90,0.00,,,0.00,VWS V14.01,2013-06-06 05:58:00,
2013-06-06 01:00:00,70.3,67.2,29.82,SW,214,1.1,6.9,90,0.00,,,0.00,VWS V14.01,2013-06-06 06:00:00,
2013-06-06 01:13:00,70.2,67.1,29.82,SSW,208,2.3,5.8,90,0.00,,,0.00,VWS V14.01,2013-06-06 06:13:00,
2013-06-06 01:15:00,70.2,67.1,29.82,SSW,208,2.3,5.8,90,0.00,,,0.00,VWS V14.01,2013-06-06 06:15:00,
2013-06-06 01:28:00,70.2,67.1,29.81,SSE,165,3.4,5.8,90,0.00,,,0.00,VWS V14.01,2013-06-06 06:28:00,
2013-06-06 01:30:00,70.2,67.1,29.81,SSE,165,3.4,5.8,90,0.00,,,0.00,VWS V14.01,2013-06-06 06:30:00,
2013-06-06 01:43:00,70.1,67.4,29.80,SSE,165,6.9,6.9,91,0.00,,,0.00,VWS V14.01,2013-06-06 06:43:00,
2013-06-06 01:45:00,70.1,67.4,29.80,SSE,165,6.9,9.2,91,0.00,,,0.00,VWS V14.01,2013-06-06 06:45:00,
2013-06-06 01:58:00,70.0,67.3,29.80,SSW,207,2.3,9.2,91,0.00,,,0.00,VWS V14.01,2013-06-06 06:58:00,
2013-06-06 02:00:00,70.0,67.3,29.80,SSW,207,2.3,9.2,91,0.00,,,0.00,VWS V14.01,2013-06-06 07:00:00,
2013-06-06 02:13:00,69.7,67.0,29.80,SSW,210,1.1,5.8,91,0.00,,,0.00,VWS V14.01,2013-06-06 07:13:00,
2013-06-06 02:15:00,69.7,67.0,29.80,SSW,210,1.1,5.8,91,0.00,,,0.00,VWS V14.01,2013-06-06 07:15:00,
2013-06-06 02:28:00,69.5,67.1,29.79,SSW,204,1.1,6.9,92,0.00,,,0.00,VWS V14.01,2013-06-06 07:28:00,
2013-06-06 02:30:00,69.5,67.1,29.79,SSW,204,1.1,6.9,92,0.00,,,0.00,VWS V14.01,2013-06-06 07:30:00,
2013-06-06 02:43:00,69.3,66.9,29.79,SW,218,2.3,5.8,92,0.00,,,0.00,VWS V14.01,2013-06-06 07:43:00,
2013-06-06 02:45:00,69.3,66.9,29.79,SW,218,2.3,5.8,92,0.00,,,0.00,VWS V14.01,2013-06-06 07:45:00,
2013-06-06 02:58:00,69.2,67.1,29.79,WSW,245,2.3,5.8,93,0.00,,,0.00,VWS V14.01,2013-06-06 07:58:00,
2013-06-06 03:00:00,69.2,67.1,29.79,WSW,245,2.3,5.8,93,0.00,,,0.00,VWS V14.01,2013-06-06 08:00:00,
2013-06-06 03:13:00,68.9,66.8,29.78,South,184,1.1,4.6,93,0.00,,,0.00,VWS V14.01,2013-06-06 08:13:00,
2013-06-06 03:15:00,68.9,66.8,29.78,South,184,1.1,4.6,93,0.00,,,0.00,VWS V14.01,2013-06-06 08:15:00,
2013-06-06 03:28:00,68.6,66.8,29.78,SW,231,0.0,3.4,94,0.00,,,0.00,VWS V14.01,2013-06-06 08:28:00,
2013-06-06 03:30:00,68.6,66.8,29.78,SW,231,0.0,3.4,94,0.00,,,0.00,VWS V14.01,2013-06-06 08:30:00,
2013-06-06 03:43:00,68.4,66.6,29.77,SSW,207,2.3,3.4,94,0.00,,,0.00,VWS V14.01,2013-06-06 08:43:00,
2013-06-06 03:45:00,68.4,66.6,29.77,SSW,207,2.3,3.4,94,0.00,,,0.00,VWS V14.01,2013-06-06 08:45:00,
2013-06-06 03:58:00,68.2,66.4,29.77,SSW,212,0.0,3.4,94,0.00,,,0.00,VWS V14.01,2013-06-06 08:58:00,
2013-06-06 04:00:00,68.2,66.4,29.77,SSW,212,0.0,3.4,94,0.00,,,0.00,VWS V14.01,2013-06-06 09:00:00,
2013-06-06 04:13:00,68.0,66.5,29.77,SSW,201,0.0,2.3,95,0.00,,,0.00,VWS V14.01,2013-06-06 09:13:00,
2013-06-06 04:15:00,68.0,66.5,29.77,SSW,201,0.0,2.3,95,0.00,,,0.00,VWS V14.01,2013-06-06 09:15:00,
2013-06-06 04:28:00,67.9,66.4,29.77,South,179,2.3,4.6,95,0.00,,,0.00,VWS V14.01,2013-06-06 09:28:00,
2013-06-06 04:30:00,67.9,66.4,29.77,South,179,2.3,4.6,95,0.00,,,0.00,VWS V14.01,2013-06-06 09:30:00,
2013-06-06 04:43:00,68.0,66.5,29.78,SSW,208,2.3,4.6,95,0.00,,,0.00,VWS V14.01,2013-06-06 09:43:00,
2013-06-06 04:45:00,68.0,66.5,29.78,SSW,208,2.3,4.6,95,0.00,,,0.00,VWS V14.01,2013-06-06 09:45:00,
2013-06-06 04:58:00,68.0,66.5,29.79,SSW,200,0.0,3.4,95,0.00,,,0.00,VWS V14.01,2013-06-06 09:58:00,
2013-06-06 05:00:00,68.0,66.5,29.79,SSW,200,0.0,3.4,95,0.00,,,0.00,VWS V14.01,2013-06-06 10:00:00,
2013-06-06 05:13:00,68.1,66.9,29.79,South,174,1.1,3.4,96,0.00,,,0.00,VWS V14.01,2013-06-06 10:13:00,
2013-06-06 05:15:00,68.1,66.9,29.79,South,174,1.1,3.4,96,0.00,,,0.00,VWS V14.01,2013-06-06 10:15:00,
2013-06-06 05:28:00,68.5,67.3,29.79,South,187,0.0,4.6,96,0.00,,,0.00,VWS V14.01,2013-06-06 10:28:00,
2013-06-06 05:30:00,68.5,67.3,29.79,South,187,0.0,4.6,96,0.00,,,0.00,VWS V14.01,2013-06-06 10:30:00,
2013-06-06 05:43:00,68.7,67.5,29.80,WSW,249,1.1,4.6,96,0.00,,,0.00,VWS V14.01,2013-06-06 10:43:00,
2013-06-06 05:45:00,68.7,67.5,29.80,WSW,249,1.1,4.6,96,0.00,,,0.00,VWS V14.01,2013-06-06 10:45:00,
2013-06-06 05:58:00,69.0,67.8,29.79,South,176,1.1,2.3,96,0.00,,,0.00,VWS V14.01,2013-06-06 10:58:00,
2013-06-06 06:00:00,69.0,67.8,29.79,South,176,1.1,2.3,96,0.00,,,0.00,VWS V14.01,2013-06-06 11:00:00,
2013-06-06 06:13:00,69.2,67.7,29.79,South,183,0.0,3.4,95,0.00,,,0.00,VWS V14.01,2013-06-06 11:13:00,
2013-06-06 06:15:00,69.2,67.7,29.79,South,183,0.0,3.4,95,0.00,,,0.00,VWS V14.01,2013-06-06 11:15:00,
2013-06-06 06:28:00,69.5,68.0,29.80,WSW,238,0.0,1.1,95,0.00,,,0.00,VWS V14.01,2013-06-06 11:28:00,
2013-06-06 06:30:00,69.5,68.0,29.80,WSW,238,0.0,1.1,95,0.00,,,0.00,VWS V14.01,2013-06-06 11:30:00,
2013-06-06 06:43:00,69.9,68.4,29.80,SW,219,0.0,2.3,95,0.00,,,0.00,VWS V14.01,2013-06-06 11:43:00,
2013-06-06 06:45:00,69.9,68.4,29.80,SW,219,0.0,2.3,95,0.00,,,0.00,VWS V14.01,2013-06-06 11:45:00,
2013-06-06 06:58:00,70.2,68.4,29.80,SW,217,0.0,2.3,94,0.00,,,0.00,VWS V14.01,2013-06-06 11:58:00,
2013-06-06 07:00:00,70.2,68.4,29.80,SW,217,0.0,2.3,94,0.00,,,0.00,VWS V14.01,2013-06-06 12:00:00,
2013-06-06 07:13:00,70.5,68.4,29.81,SW,224,0.0,6.9,93,0.00,,,0.00,VWS V14.01,2013-06-06 12:13:00,
2013-06-06 07:15:00,70.5,68.4,29.81,SW,224,0.0,6.9,93,0.00,,,0.00,VWS V14.01,2013-06-06 12:15:00,
2013-06-06 07:28:00,71.2,68.8,29.81,West,275,0.0,1.1,92,0.00,,,0.00,VWS V14.01,2013-06-06 12:28:00,
2013-06-06 07:30:00,71.2,68.8,29.81,West,275,0.0,1.1,92,0.00,,,0.00,VWS V14.01,2013-06-06 12:30:00,
2013-06-06 07:43:00,72.9,69.5,29.81,NNW,338,0.0,3.4,89,0.00,,,0.00,VWS V14.01,2013-06-06 12:43:00,
2013-06-06 07:45:00,72.9,69.5,29.81,NNW,338,0.0,3.4,89,0.00,,,0.00,VWS V14.01,2013-06-06 12:45:00,
2013-06-06 07:58:00,72.8,69.0,29.82,NW,311,0.0,3.4,88,0.00,,,0.00,VWS V14.01,2013-06-06 12:58:00,
2013-06-06 08:00:00,72.8,69.0,29.82,NW,311,0.0,3.4,88,0.00,,,0.00,VWS V14.01,2013-06-06 13:00:00,
2013-06-06 08:13:00,73.5,69.7,29.82,WSW,248,0.0,4.6,88,0.00,,,0.00,VWS V14.01,2013-06-06 13:13:00,
2013-06-06 08:15:00,73.5,69.7,29.82,WSW,248,0.0,4.6,88,0.00,,,0.00,VWS V14.01,2013-06-06 13:15:00,
2013-06-06 08:28:00,75.1,69.6,29.82,WSW,239,0.0,2.3,83,0.00,,,0.00,VWS V14.01,2013-06-06 13:28:00,
2013-06-06 08:30:00,75.1,69.6,29.82,WSW,239,0.0,2.3,83,0.00,,,0.00,VWS V14.01,2013-06-06 13:30:00,
2013-06-06 08:43:00,75.1,69.2,29.82,NNE,28,0.0,3.4,82,0.00,,,0.00,VWS V14.01,2013-06-06 13:43:00,
2013-06-06 08:45:00,75.1,69.2,29.82,NNE,28,0.0,3.4,82,0.00,,,0.00,VWS V14.01,2013-06-06 13:45:00,
2013-06-06 08:58:00,75.1,68.5,29.82,North,9,0.0,3.4,80,0.00,,,0.00,VWS V14.01,2013-06-06 13:58:00,
2013-06-06 09:00:00,75.1,68.5,29.82,North,9,0.0,3.4,80,0.00,,,0.00,VWS V14.01,2013-06-06 14:00:00,
2013-06-06 09:13:00,76.5,68.4,29.81,WNW,283,0.0,3.4,76,0.00,,,0.00,VWS V14.01,2013-06-06 14:13:00,
2013-06-06 09:15:00,76.5,68.4,29.81,WNW,283,0.0,3.4,76,0.00,,,0.00,VWS V14.01,2013-06-06 14:15:00,
2013-06-06 09:28:00,78.4,69.4,29.81,NW,315,0.0,2.3,74,0.00,,,0.00,VWS V14.01,2013-06-06 14:28:00,
2013-06-06 09:30:00,78.4,69.4,29.81,NW,315,0.0,2.3,74,0.00,,,0.00,VWS V14.01,2013-06-06 14:30:00,
2013-06-06 09:43:00,78.8,69.0,29.81,West,276,0.0,4.6,72,0.00,,,0.00,VWS V14.01,2013-06-06 14:43:00,
2013-06-06 09:45:00,78.8,69.0,29.81,West,276,0.0,4.6,72,0.00,,,0.00,VWS V14.01,2013-06-06 14:45:00,
2013-06-06 09:58:00,78.0,67.0,29.81,ENE,63,1.1,5.8,69,0.00,,,0.00,VWS V14.01,2013-06-06 14:58:00,
2013-06-06 10:00:00,78.0,67.0,29.81,ENE,63,1.1,5.8,69,0.00,,,0.00,VWS V14.01,2013-06-06 15:00:00,
2013-06-06 10:13:00,79.6,68.1,29.80,North,1,2.3,8.1,68,0.00,,,0.00,VWS V14.01,2013-06-06 15:13:00,
2013-06-06 10:15:00,79.6,68.1,29.80,North,1,2.3,8.1,68,0.00,,,0.00,VWS V14.01,2013-06-06 15:15:00,
2013-06-06 10:28:00,80.7,68.7,29.80,NW,325,2.3,4.6,67,0.00,,,0.00,VWS V14.01,2013-06-06 15:28:00,
2013-06-06 10:30:00,80.7,68.7,29.80,NW,325,2.3,4.6,67,0.00,,,0.00,VWS V14.01,2013-06-06 15:30:00,
2013-06-06 10:43:00,80.3,68.3,29.80,North,8,0.0,4.6,67,0.00,,,0.00,VWS V14.01,2013-06-06 15:43:00,
2013-06-06 10:45:00,80.3,68.3,29.80,North,8,0.0,4.6,67,0.00,,,0.00,VWS V14.01,2013-06-06 15:45:00,
2013-06-06 10:58:00,79.6,69.0,29.81,SW,225,1.1,6.9,70,0.00,,,0.00,VWS V14.01,2013-06-06 15:58:00,
2013-06-06 11:00:00,79.6,69.0,29.81,SW,225,1.1,6.9,70,0.00,,,0.00,VWS V14.01,2013-06-06 16:00:00,
2013-06-06 11:13:00,79.8,68.3,29.81,WNW,301,0.0,5.8,68,0.00,,,0.00,VWS V14.01,2013-06-06 16:13:00,
2013-06-06 11:15:00,79.8,68.3,29.81,WNW,301,0.0,5.8,68,0.00,,,0.00,VWS V14.01,2013-06-06 16:15:00,
2013-06-06 11:28:00,81.1,70.4,29.81,North,355,1.1,4.6,70,0.00,,,0.00,VWS V14.01,2013-06-06 16:28:00,
2013-06-06 11:30:00,81.1,70.4,29.81,North,355,1.1,4.6,70,0.00,,,0.00,VWS V14.01,2013-06-06 16:30:00,
2013-06-06 11:43:00,81.3,68.9,29.82,NNW,333,0.0,5.8,66,0.00,,,0.00,VWS V14.01,2013-06-06 16:43:00,
2013-06-06 11:45:00,81.3,68.9,29.82,NNW,333,0.0,5.8,66,0.00,,,0.00,VWS V14.01,2013-06-06 16:45:00,
2013-06-06 11:58:00,81.3,68.9,29.82,NNW,342,1.1,5.8,66,0.00,,,0.00,VWS V14.01,2013-06-06 16:58:00,
2013-06-06 12:00:00,81.3,68.9,29.82,NNW,342,1.1,5.8,66,0.00,,,0.00,VWS V14.01,2013-06-06 17:00:00,
2013-06-06 12:13:00,81.2,68.3,29.83,NW,309,0.0,5.8,65,0.00,,,0.00,VWS V14.01,2013-06-06 17:13:00,
2013-06-06 12:15:00,81.2,68.3,29.83,NW,309,0.0,5.8,65,0.00,,,0.00,VWS V14.01,2013-06-06 17:15:00,
2013-06-06 12:28:00,81.2,69.2,29.82,NW,312,2.3,4.6,67,0.00,,,0.00,VWS V14.01,2013-06-06 17:28:00,
2013-06-06 12:30:00,81.2,69.2,29.82,NW,312,2.3,4.6,67,0.00,,,0.00,VWS V14.01,2013-06-06 17:30:00,
2013-06-06 12:43:00,81.2,69.2,29.82,WNW,285,0.0,5.8,67,0.00,,,0.00,VWS V14.01,2013-06-06 17:43:00,
2013-06-06 12:45:00,81.2,69.2,29.82,WNW,285,0.0,5.8,67,0.00,,,0.00,VWS V14.01,2013-06-06 17:45:00,
2013-06-06 12:58:00,81.1,68.7,29.82,NNE,17,1.1,4.6,66,0.00,,,0.00,VWS V14.01,2013-06-06 17:58:00,
2013-06-06 13:00:00,81.1,68.7,29.82,NNE,17,1.1,4.6,66,0.00,,,0.00,VWS V14.01,2013-06-06 18:00:00,
2013-06-06 13:13:00,83.3,67.5,29.82,ENE,68,1.1,3.4,59,0.00,,,0.00,VWS V14.01,2013-06-06 18:13:00,
2013-06-06 13:15:00,83.3,67.5,29.82,ENE,68,1.1,3.4,59,0.00,,,0.00,VWS V14.01,2013-06-06 18:15:00,
2013-06-06 13:28:00,82.9,69.0,29.81,WSW,243,2.3,5.8,63,0.00,,,0.00,VWS V14.01,2013-06-06 18:28:00,
2013-06-06 13:30:00,82.9,69.0,29.81,WSW,243,2.3,5.8,63,0.00,,,0.00,VWS V14.01,2013-06-06 18:30:00,
2013-06-06 13:43:00,82.6,69.2,29.81,WSW,246,0.0,4.6,64,0.00,,,0.00,VWS V14.01,2013-06-06 18:43:00,
2013-06-06 13:45:00,82.6,69.2,29.81,WSW,246,0.0,4.6,64,0.00,,,0.00,VWS V14.01,2013-06-06 18:45:00,
2013-06-06 13:58:00,82.9,68.1,29.81,NE,41,1.1,5.8,61,0.00,,,0.00,VWS V14.01,2013-06-06 18:58:00,
2013-06-06 14:00:00,82.9,68.1,29.81,NE,41,1.1,5.8,61,0.00,,,0.00,VWS V14.01,2013-06-06 19:00:00,
2013-06-06 14:13:00,82.9,69.0,29.80,West,275,0.0,4.6,63,0.00,,,0.00,VWS V14.01,2013-06-06 19:13:00,
2013-06-06 14:15:00,82.9,69.0,29.80,West,275,0.0,4.6,63,0.00,,,0.00,VWS V14.01,2013-06-06 19:15:00,
2013-06-06 14:28:00,84.7,68.8,29.80,SW,229,0.0,5.8,59,0.00,,,0.00,VWS V14.01,2013-06-06 19:28:00,
2013-06-06 14:30:00,84.7,68.8,29.80,SW,229,0.0,5.8,59,0.00,,,0.00,VWS V14.01,2013-06-06 19:30:00,
2013-06-06 14:43:00,84.5,69.6,29.79,WSW,250,1.1,5.8,61,0.00,,,0.00,VWS V14.01,2013-06-06 19:43:00,
2013-06-06 14:45:00,84.5,69.6,29.79,WSW,250,1.1,5.8,61,0.00,,,0.00,VWS V14.01,2013-06-06 19:45:00,
2013-06-06 14:58:00,84.7,67.3,29.79,ENE,64,0.0,4.6,56,0.00,,,0.00,VWS V14.01,2013-06-06 19:58:00,
2013-06-06 15:00:00,84.7,67.3,29.79,ENE,64,0.0,4.6,56,0.00,,,0.00,VWS V14.01,2013-06-06 20:00:00,
2013-06-06 15:13:00,84.2,68.8,29.79,WNW,297,0.0,4.6,60,0.00,,,0.00,VWS V14.01,2013-06-06 20:13:00,
2013-06-06 15:15:00,84.2,68.8,29.79,WNW,297,0.0,4.6,60,0.00,,,0.00,VWS V14.01,2013-06-06 20:15:00,
2013-06-06 15:28:00,84.4,69.0,29.78,SSW,208,1.1,3.4,60,0.00,,,0.00,VWS V14.01,2013-06-06 20:28:00,
2013-06-06 15:30:00,84.4,69.0,29.78,SSW,208,1.1,3.4,60,0.00,,,0.00,VWS V14.01,2013-06-06 20:30:00,
2013-06-06 15:43:00,84.2,68.3,29.78,NNW,345,1.1,4.6,59,0.00,,,0.00,VWS V14.01,2013-06-06 20:43:00,
2013-06-06 15:45:00,84.2,68.3,29.78,NNW,345,1.1,4.6,59,0.00,,,0.00,VWS V14.01,2013-06-06 20:45:00,
2013-06-06 15:58:00,83.2,68.4,29.77,NE,53,0.0,4.6,61,0.00,,,0.00,VWS V14.01,2013-06-06 20:58:00,
2013-06-06 16:00:00,83.2,68.4,29.77,NE,53,0.0,4.6,61,0.00,,,0.00,VWS V14.01,2013-06-06 21:00:00,
2013-06-06 16:13:00,82.9,69.0,29.76,SE,124,0.0,3.4,63,0.00,,,0.00,VWS V14.01,2013-06-06 21:13:00,
2013-06-06 16:15:00,82.9,69.0,29.76,SE,124,0.0,3.4,63,0.00,,,0.00,VWS V14.01,2013-06-06 21:15:00,
2013-06-06 16:28:00,83.2,67.4,29.76,SE,129,0.0,3.4,59,0.00,,,0.00,VWS V14.01,2013-06-06 21:28:00,
2013-06-06 16:30:00,83.2,67.4,29.76,SE,129,0.0,3.4,59,0.00,,,0.00,VWS V14.01,2013-06-06 21:30:00,
2013-06-06 16:43:00,82.3,68.0,29.76,NNW,343,0.0,4.6,62,0.00,,,0.00,VWS V14.01,2013-06-06 21:43:00,
2013-06-06 16:45:00,82.3,68.0,29.76,NNW,343,0.0,4.6,62,0.00,,,0.00,VWS V14.01,2013-06-06 21:45:00,
2013-06-06 16:58:00,82.0,68.2,29.75,ENE,61,0.0,2.3,63,0.00,,,0.00,VWS V14.01,2013-06-06 21:58:00,
2013-06-06 17:00:00,82.0,68.2,29.75,ENE,61,0.0,2.3,63,0.00,,,0.00,VWS V14.01,2013-06-06 22:00:00,
2013-06-06 17:13:00,81.9,68.1,29.76,North,354,0.0,3.4,63,0.00,,,0.00,VWS V14.01,2013-06-06 22:13:00,
2013-06-06 17:15:00,81.9,68.1,29.76,North,354,0.0,3.4,63,0.00,,,0.00,VWS V14.01,2013-06-06 22:15:00,
2013-06-06 17:28:00,81.4,67.1,29.75,NNE,16,0.0,3.4,62,0.00,,,0.00,VWS V14.01,2013-06-06 22:28:00,
2013-06-06 17:30:00,81.4,67.1,29.75,NNE,16,0.0,3.4,62,0.00,,,0.00,VWS V14.01,2013-06-06 22:30:00,
2013-06-06 17:43:00,81.1,66.9,29.75,NE,51,0.0,3.4,62,0.00,,,0.00,VWS V14.01,2013-06-06 22:43:00,
2013-06-06 17:45:00,81.1,66.9,29.75,NE,51,0.0,3.4,62,0.00,,,0.00,VWS V14.01,2013-06-06 22:45:00,
2013-06-06 17:58:00,80.5,66.3,29.75,NW,305,0.0,4.6,62,0.00,,,0.00,VWS V14.01,2013-06-06 22:58:00,
2013-06-06 18:00:00,80.5,66.3,29.75,NW,305,0.0,4.6,62,0.00,,,0.00,VWS V14.01,2013-06-06 23:00:00,
2013-06-06 18:13:00,79.9,67.1,29.75,SSW,212,0.0,4.6,65,0.00,,,0.00,VWS V14.01,2013-06-06 23:13:00,
2013-06-06 18:15:00,79.9,67.1,29.75,SSW,212,0.0,4.6,65,0.00,,,0.00,VWS V14.01,2013-06-06 23:15:00,
2013-06-06 18:28:00,79.6,66.4,29.74,NE,43,0.0,4.6,64,0.00,,,0.00,VWS V14.01,2013-06-06 23:28:00,
2013-06-06 18:30:00,79.6,66.4,29.74,NE,43,0.0,4.6,64,0.00,,,0.00,VWS V14.01,2013-06-06 23:30:00,
2013-06-06 18:43:00,79.5,66.7,29.75,NNW,343,0.0,3.4,65,0.00,,,0.00,VWS V14.01,2013-06-06 23:43:00,
2013-06-06 18:45:00,79.5,66.7,29.75,NNW,343,0.0,3.4,65,0.00,,,0.00,VWS V14.01,2013-06-06 23:45:00,
2013-06-06 18:58:00,79.0,66.2,29.74,WSW,241,1.1,3.4,65,0.00,,,0.00,VWS V14.01,2013-06-06 23:58:00,
2013-06-06 19:00:00,79.0,66.2,29.74,WSW,241,1.1,3.4,65,0.00,,,0.00,VWS V14.01,2013-06-07 00:00:00,
2013-06-06 19:13:00,78.3,66.0,29.75,NE,51,0.0,4.6,66,0.00,,,0.00,VWS V14.01,2013-06-07 00:13:00,
2013-06-06 19:15:00,78.3,66.0,29.75,NE,51,0.0,4.6,66,0.00,,,0.00,VWS V14.01,2013-06-07 00:15:00,
2013-06-06 19:28:00,77.9,66.1,29.75,NE,49,0.0,2.3,67,0.00,,,0.00,VWS V14.01,2013-06-07 00:28:00,
2013-06-06 19:30:00,77.9,66.1,29.75,NE,49,0.0,2.3,67,0.00,,,0.00,VWS V14.01,2013-06-07 00:30:00,
2013-06-06 19:43:00,77.4,65.6,29.76,South,184,0.0,1.1,67,0.00,,,0.00,VWS V14.01,2013-06-07 00:43:00,
2013-06-06 19:45:00,77.4,65.6,29.76,South,184,0.0,1.1,67,0.00,,,0.00,VWS V14.01,2013-06-07 00:45:00,
2013-06-06 19:58:00,76.9,65.5,29.76,ENE,58,0.0,0.0,68,0.00,,,0.00,VWS V14.01,2013-06-07 00:58:00,
2013-06-06 20:00:00,76.9,65.5,29.76,ENE,58,0.0,0.0,68,0.00,,,0.00,VWS V14.01,2013-06-07 01:00:00,
2013-06-06 20:13:00,76.4,65.5,29.75,ENE,58,0.0,0.0,69,0.00,,,0.00,VWS V14.01,2013-06-07 01:13:00,
2013-06-06 20:15:00,76.4,65.5,29.75,ENE,58,0.0,0.0,69,0.00,,,0.00,VWS V14.01,2013-06-07 01:15:00,
2013-06-06 20:28:00,76.2,65.7,29.76,NE,49,0.0,1.1,70,0.00,,,0.00,VWS V14.01,2013-06-07 01:28:00,
2013-06-06 20:30:00,76.2,65.7,29.76,NE,49,0.0,1.1,70,0.00,,,0.00,VWS V14.01,2013-06-07 01:30:00,
2013-06-06 20:43:00,75.7,65.6,29.76,NE,48,0.0,0.0,71,0.00,,,0.00,VWS V14.01,2013-06-07 01:43:00,
2013-06-06 20:45:00,75.7,65.6,29.76,NE,48,0.0,0.0,71,0.00,,,0.00,VWS V14.01,2013-06-07 01:45:00,
2013-06-06 20:58:00,75.2,65.6,29.76,NE,49,0.0,0.0,72,0.00,,,0.00,VWS V14.01,2013-06-07 01:58:00,
2013-06-06 21:00:00,75.2,65.6,29.76,NE,49,0.0,0.0,72,0.00,,,0.00,VWS V14.01,2013-06-07 02:00:00,
2013-06-06 21:13:00,74.9,65.7,29.77,NNE,12,0.0,0.0,73,0.00,,,0.00,VWS V14.01,2013-06-07 02:13:00,
2013-06-06 21:15:00,74.9,65.7,29.77,NNE,12,0.0,0.0,73,0.00,,,0.00,VWS V14.01,2013-06-07 02:15:00,
2013-06-06 21:28:00,74.5,65.3,29.78,North,354,0.0,0.0,73,0.00,,,0.00,VWS V14.01,2013-06-07 02:28:00,
2013-06-06 21:30:00,74.5,65.3,29.78,North,354,0.0,0.0,73,0.00,,,0.00,VWS V14.01,2013-06-07 02:30:00,
2013-06-06 21:43:00,74.1,65.3,29.79,North,354,0.0,0.0,74,0.00,,,0.00,VWS V14.01,2013-06-07 02:43:00,
2013-06-06 21:45:00,74.1,65.3,29.79,North,354,0.0,0.0,74,0.00,,,0.00,VWS V14.01,2013-06-07 02:45:00,
2013-06-06 21:58:00,73.7,65.3,29.79,North,354,0.0,0.0,75,0.00,,,0.00,VWS V14.01,2013-06-07 02:58:00,
2013-06-06 22:00:00,73.7,65.3,29.79,North,354,0.0,0.0,75,0.00,,,0.00,VWS V14.01,2013-06-07 03:00:00,
2013-06-06 22:13:00,73.6,65.9,29.80,North,354,0.0,0.0,77,0.00,,,0.00,VWS V14.01,2013-06-07 03:13:00,
2013-06-06 22:15:00,73.6,65.9,29.80,North,354,0.0,0.0,77,0.00,,,0.00,VWS V14.01,2013-06-07 03:15:00,
2013-06-06 22:28:00,73.5,65.9,29.80,NNW,345,0.0,1.1,77,0.00,,,0.00,VWS V14.01,2013-06-07 03:28:00,
2013-06-06 22:30:00,73.5,65.9,29.80,NNW,345,0.0,1.1,77,0.00,,,0.00,VWS V14.01,2013-06-07 03:30:00,
2013-06-06 22:43:00,73.6,65.9,29.80,NW,308,0.0,1.1,77,0.00,,,0.00,VWS V14.01,2013-06-07 03:43:00,
2013-06-06 22:45:00,73.6,65.9,29.80,NW,308,0.0,1.1,77,0.00,,,0.00,VWS V14.01,2013-06-07 03:45:00,
2013-06-06 22:58:00,73.8,66.2,29.81,NNW,343,0.0,1.1,77,0.00,,,0.00,VWS V14.01,2013-06-07 03:58:00,
2013-06-06 23:00:00,73.8,66.2,29.81,NNW,343,0.0,1.1,77,0.00,,,0.00,VWS V14.01,2013-06-07 04:00:00,
2013-06-06 23:13:00,73.9,65.9,29.80,NNE,29,0.0,1.1,76,0.00,,,0.00,VWS V14.01,2013-06-07 04:13:00,
2013-06-06 23:15:00,73.9,65.9,29.80,NNE,29,0.0,1.1,76,0.00,,,0.00,VWS V14.01,2013-06-07 04:15:00,
2013-06-06 23:28:00,74.0,65.6,29.80,NNW,336,0.0,2.3,75,0.00,,,0.00,VWS V14.01,2013-06-07 04:28:00,
2013-06-06 23:43:00,73.9,65.5,29.80,NNW,335,0.0,1.1,75,0.00,,,0.00,VWS V14.01,2013-06-07 04:43:00,
2013-06-06 23:45:00,73.9,65.5,29.80,NNW,335,0.0,1.1,75,0.00,,,0.00,VWS V14.01,2013-06-07 04:45:00,
2013-06-06 23:58:00,73.8,65.4,29.79,North,11,0.0,1.1,75,0.00,,,0.00,VWS V14.01,2013-06-07 04:58:00,